Simultaneous Nadir Overpasses (SNOs) Predictions

Prediction of SNOs between AQUA and METOP-B Satellite Orbit:

Table of predicted SNOs for the next 14.0 days since TLE Epoch: 1/6/2017
Index Date (AQUA) Time (AQUA) Lat,Lon (AQUA) SZA (AQUA ) Date (METOP-B) Time (METOP-B) Lat,Lon (METOP-B) SZA (METOP-B ) Distance(km) Time Diff (sec)
1 01/09/2017 11:23:05 73.06, 4.90 95.09 01/09/2017 11:21:59 72.97, 2.23 95.11 87.42 66
2 01/09/2017 12:12:43 -73.71, 171.19 84.23 01/09/2017 12:12:26 -73.73, 171.27 84.21 3.19 17
3 01/09/2017 13:02:12 73.79, -21.35 95.86 01/09/2017 13:03:04 73.80, -21.24 95.85 3.36 52
4 01/12/2017 06:57:22 73.22, 71.02 94.83 01/12/2017 06:56:14 73.17, 69.08 94.86 62.83 68
5 01/12/2017 07:46:57 -73.72,-122.38 84.65 01/12/2017 07:46:45 -73.73,-122.33 84.64 2.05 12
6 01/12/2017 08:36:26 73.80, 45.09 95.43 01/12/2017 08:37:23 73.79, 45.16 95.42 2.46 57
7 01/15/2017 02:31:40 73.39, 137.12 94.53 01/15/2017 02:30:30 73.35, 135.89 94.54 39.26 70
8 01/15/2017 03:21:12 -73.73, -55.95 85.13 01/15/2017 03:21:05 -73.71, -55.96 85.14 2.21 7
9 01/15/2017 04:10:40 73.76, 111.62 94.90 01/15/2017 04:11:43 73.77, 111.53 94.92 3.25 63
10 01/17/2017 22:05:58 73.57,-156.81 94.18 01/17/2017 22:04:46 73.51,-157.32 94.15 17.41 72
11 01/17/2017 22:55:27 -73.74, 10.45 85.64 01/17/2017 22:55:24 -73.72, 10.49 85.67 3.19 3
12 01/17/2017 23:44:55 73.77, 178.02 94.39 01/17/2017 23:46:02 73.78, 177.98 94.39 1.68 67
13 01/20/2017 17:40:13 73.65, -90.53
